Location: STAR School
(35.3054°N, 111.2976°W)
Time: 14:46:32
(UTC-07:00)

Altair - Visible Passes

Search period start: 20 May 2019 00:00
Search period end: 30 May 2019 00:00
Orbit: 1501 x 1683 km, 47.2° (Epoch: 19 May)

Date Brightness Start Highest point End Pass type
(mag) Time Alt. Az. Time Alt. Az. Time Alt. Az.
20 May 8.2 03:24:13 20° SSW 03:30:52 46° SE 03:40:19 10° ENE visible
21 May 8.3 03:00:26 25° S 03:05:44 42° SE 03:15:01 10° ENE visible
22 May 8.4 02:36:37 28° S 02:40:37 38° SE 02:49:39 10° ENE visible
22 May 7.8 04:34:51 10° WSW 04:44:59 77° NNW 04:55:11 10° NE visible
23 May 8.4 02:12:45 30° SSE 02:15:30 35° SE 02:24:16 10° ENE visible
23 May 7.7 04:10:45 14° WSW 04:19:45 82° NNW 04:29:58 10° NE visible
24 May 8.4 01:48:49 30° SE 01:50:24 31° SE 01:58:52 10° ENE visible
24 May 7.7 03:46:49 20° SW 03:54:30 86° NW 04:04:45 10° NE visible
25 May 8.5 01:24:49 28° SE 01:25:19 28° SE 01:33:25 10° ENE visible
25 May 7.6 03:22:49 27° SW 03:29:17 89° SE 03:39:32 10° NE visible
26 May 8.7 01:00:47 25° ESE 01:00:47 25° ESE 01:07:55 10° ENE visible
26 May 7.6 02:58:46 34° SW 03:04:05 84° SE 03:14:18 10° NE visible
27 May 8.9 00:36:41 22° ESE 00:36:41 22° ESE 00:42:21 10° ENE visible
27 May 7.6 02:34:41 41° SW 02:38:53 78° SE 02:49:04 10° ENE visible
27 May 8.3 04:34:40 10° W 04:44:27 50° NNW 04:54:15 10° ENE visible
28 May 9.0 00:12:33 18° ESE 00:12:33 18° ESE 00:16:43 10° E visible
28 May 7.6 02:10:32 49° SSW 02:13:41 73° SE 02:23:49 10° ENE visible
28 May 8.2 04:09:19 10° W 04:19:07 52° NNW 04:29:00 10° NE visible
28 May 9.2 23:48:21 15° E 23:48:21 15° E 23:50:58 10° E visible
29 May 7.5 01:46:20 56° S 01:48:31 68° SE 01:58:34 10° ENE visible
29 May 8.2 03:44:18 11° W 03:53:48 54° NNW 04:03:44 10° NE visible
29 May 9.3 23:24:05 12° E 23:24:05 12° E 23:25:04 10° E visible
